User: anonymous   Login
Location: Unspecified
(0.0000°N, 0.0000°E)
Time: 13:18:07
(UTC+00:00)
Language:

SATHYABAMASAT - Orbit

View from above orbital plane
View from above orbital plane
View from above satellite
View from above satellite

Ground track
Ground track

The orbit data is extracted from the following two-line orbital elements,

1 41600U 16040B   22277.12972447  .00039610  00000-0  11159-2 0  9996
2 41600  97.2084 327.1333 0011715  92.7771 267.4815 15.36265383349565
Epoch (UTC): 04 October 2022 03:06:48
Eccentricity: 0.0011715
inclination: 97.2084°
perigee height: 449 km
apogee height: 465 km
right ascension of ascending node: 327.1333°
argument of perigee: 92.7771°
revolutions per day: 15.36265383
mean anomaly at epoch: 267.4815°
orbit number at epoch: 34956

The dashed part of the orbit path shows where the satellite is in the earth's shadow,  

DLR